Zurück zum Katalog

ATHENA

AktivWissenschaftSSO
NORAD 46275·PAYLOAD·🇺🇸 United States

Gestartet Sep 3, 2020 von Guiana Space Centre

Loading…

Nächste Überflüge (nächste 24 Stunden)

TLE

AktuellSource: Space-Track

Epoche: Sep 13, 2026, 18:07 UTC

1 46275U 20061D   26256.75549233  .00012764  00000-0  21932-3 0  9992
2 46275  97.1836 320.8651 0002270 105.5107 254.6396 15.51266286335878

Verfolge ATHENA in Echtzeit mit AllMySat

Download on the App Store